EXACTVIEW-1 (ADS-1B)

Last updated on Mon Oct 14 2024 00:02:24 GMT+0000 (Coordinated Universal Time)

1 38709U 12039C 24287.24645151 .00000836 00000+0 37964-3 0 9991 2 38709 98.9510 21.3281 0011739 132.2345 227.9831 14.24597109635568
UTC large
Height (km)
Speed (km/s)
/
Latitude / Longitude
Inclination (degrees)
Orbital Period (minutes)
Azimuth
Elevation
Range (km)
Doppler Factor

Next 0 passes for location: London (51.5072 / 0.1276)

Sorry there are no passes over London.